Time,TemperatureF,DewpointF,PressureIn,WindDirection,WindDirectionDegrees,WindSpeedMPH,WindSpeedGustMPH,Humidity,HourlyPrecipIn,Conditions,Clouds,dailyrainin,SoftwareType,DateUTC
2014-01-13 00:00:00,32.3,26.5,29.94,SW,218,0.0,0.0,79,0.00,,,0.03,Wunderground v.1.15,2014-01-13 05:00:00,
2014-01-13 00:10:00,32.1,26.6,29.95,SW,218,0.0,0.0,80,0.00,,,0.00,Wunderground v.1.15,2014-01-13 05:10:00,
2014-01-13 00:20:00,31.8,26.6,29.95,SW,218,0.0,0.0,81,0.00,,,0.00,Wunderground v.1.15,2014-01-13 05:20:00,
2014-01-13 00:30:00,31.4,26.2,29.95,SW,218,0.0,0.0,81,0.00,,,0.00,Wunderground v.1.15,2014-01-13 05:30:00,
2014-01-13 00:40:00,30.9,25.8,29.97,SW,218,0.0,0.0,81,0.00,,,0.00,Wunderground v.1.15,2014-01-13 05:40:00,
2014-01-13 00:50:00,30.6,25.8,29.97,SW,218,0.0,0.0,82,0.00,,,0.00,Wunderground v.1.15,2014-01-13 05:50:00,
2014-01-13 01:00:00,30.8,26.2,29.97,SW,218,0.0,0.0,83,0.00,,,0.00,Wunderground v.1.15,2014-01-13 06:00:00,
2014-01-13 01:10:00,30.7,26.1,29.97,SW,218,0.0,0.0,83,0.00,,,0.00,Wunderground v.1.15,2014-01-13 06:10:00,
2014-01-13 01:20:00,30.4,26.1,29.98,SW,218,0.0,0.0,84,0.00,,,0.00,Wunderground v.1.15,2014-01-13 06:20:00,
2014-01-13 01:30:00,30.6,26.3,29.99,SW,218,0.0,0.0,84,0.00,,,0.00,Wunderground v.1.15,2014-01-13 06:30:00,
2014-01-13 01:40:00,30.6,26.3,29.99,SW,218,0.0,0.0,84,0.00,,,0.00,Wunderground v.1.15,2014-01-13 06:40:00,
2014-01-13 01:50:00,30.6,26.3,29.99,SW,218,0.0,0.0,84,0.00,,,0.00,Wunderground v.1.15,2014-01-13 06:50:00,
2014-01-13 02:00:00,30.8,26.5,29.99,SW,218,0.0,0.0,84,0.00,,,0.00,Wunderground v.1.15,2014-01-13 07:00:00,
2014-01-13 02:10:00,31.1,26.5,30.00,WSW,256,0.0,0.0,83,0.00,,,0.00,Wunderground v.1.15,2014-01-13 07:10:00,
2014-01-13 02:20:00,31.4,26.5,30.00,WSW,256,0.0,0.0,82,0.00,,,0.00,Wunderground v.1.15,2014-01-13 07:20:00,
2014-01-13 02:30:00,31.6,26.7,30.00,WSW,256,0.0,0.0,82,0.00,,,0.00,Wunderground v.1.15,2014-01-13 07:30:00,
2014-01-13 02:40:00,31.5,26.3,30.01,WSW,256,0.0,0.0,81,0.00,,,0.00,Wunderground v.1.15,2014-01-13 07:40:00,
2014-01-13 02:50:00,31.1,26.2,30.01,WSW,256,0.0,0.0,82,0.00,,,0.00,Wunderground v.1.15,2014-01-13 07:50:00,
2014-01-13 03:00:00,30.9,26.3,30.02,WSW,256,0.0,1.0,83,0.00,,,0.00,Wunderground v.1.15,2014-01-13 08:00:00,
2014-01-13 03:20:00,31.1,26.5,30.02,WSW,257,0.0,1.0,83,0.00,,,0.00,Wunderground v.1.15,2014-01-13 08:20:00,
2014-01-13 03:30:00,31.4,26.8,30.02,WSW,257,0.0,0.0,83,0.00,,,0.00,Wunderground v.1.15,2014-01-13 08:30:00,
2014-01-13 03:40:00,31.5,26.6,30.03,WSW,257,0.0,0.0,82,0.00,,,0.00,Wunderground v.1.15,2014-01-13 08:40:00,
2014-01-13 03:50:00,31.5,26.6,30.03,WSW,257,0.0,0.0,82,0.00,,,0.00,Wunderground v.1.15,2014-01-13 08:50:00,
2014-01-13 04:00:00,31.3,26.7,30.03,WSW,257,0.0,0.0,83,0.00,,,0.00,Wunderground v.1.15,2014-01-13 09:00:00,
2014-01-13 04:10:00,31.1,26.5,30.04,WSW,257,0.0,0.0,83,0.00,,,0.00,Wunderground v.1.15,2014-01-13 09:10:00,
2014-01-13 04:20:00,30.9,26.3,30.05,WSW,257,0.0,0.0,83,0.00,,,0.00,Wunderground v.1.15,2014-01-13 09:20:00,
2014-01-13 04:30:00,30.7,26.4,30.05,West,276,0.0,0.0,84,0.00,,,0.00,Wunderground v.1.15,2014-01-13 09:30:00,
2014-01-13 04:40:00,30.8,26.5,30.04,West,277,0.0,0.0,84,0.00,,,0.00,Wunderground v.1.15,2014-01-13 09:40:00,
2014-01-13 04:50:00,31.1,26.8,30.04,West,277,0.0,0.0,84,0.00,,,0.00,Wunderground v.1.15,2014-01-13 09:50:00,
2014-01-13 05:00:00,31.0,26.7,30.05,West,276,0.0,0.0,84,0.00,,,0.00,Wunderground v.1.15,2014-01-13 10:00:00,
2014-01-13 05:10:00,30.7,26.4,30.05,West,277,0.0,0.0,84,0.00,,,0.00,Wunderground v.1.15,2014-01-13 10:10:00,
2014-01-13 05:20:00,30.2,26.2,30.05,West,277,0.0,0.0,85,0.00,,,0.00,Wunderground v.1.15,2014-01-13 10:20:00,
2014-01-13 05:30:00,29.8,26.1,30.05,West,277,0.0,0.0,86,0.00,,,0.00,Wunderground v.1.15,2014-01-13 10:30:00,
2014-01-13 05:40:00,29.4,26.0,30.05,West,276,0.0,0.0,87,0.00,,,0.00,Wunderground v.1.15,2014-01-13 10:40:00,
2014-01-13 05:50:00,29.1,25.7,30.06,West,277,0.0,0.0,87,0.00,,,0.00,Wunderground v.1.15,2014-01-13 10:50:00,
2014-01-13 06:00:00,28.8,25.7,30.07,West,277,0.0,0.0,88,0.00,,,0.00,Wunderground v.1.15,2014-01-13 11:00:00,
2014-01-13 06:10:00,28.5,25.4,30.07,West,276,0.0,0.0,88,0.00,,,0.00,Wunderground v.1.15,2014-01-13 11:10:00,
2014-01-13 06:20:00,28.3,25.5,30.06,West,276,0.0,0.0,89,0.00,,,0.00,Wunderground v.1.15,2014-01-13 11:20:00,
2014-01-13 06:30:00,28.4,25.6,30.07,West,277,0.0,0.0,89,0.00,,,0.00,Wunderground v.1.15,2014-01-13 11:30:00,
2014-01-13 06:40:00,28.4,25.6,30.07,West,277,0.0,0.0,89,0.00,,,0.00,Wunderground v.1.15,2014-01-13 11:40:00,
2014-01-13 06:50:00,28.5,25.7,30.08,West,276,0.0,0.0,89,0.00,,,0.00,Wunderground v.1.15,2014-01-13 11:50:00,
2014-01-13 07:00:00,28.8,26.2,30.08,West,277,0.0,0.0,90,0.00,,,0.00,Wunderground v.1.15,2014-01-13 12:00:00,
2014-01-13 07:10:00,29.0,26.2,30.07,West,277,0.0,0.0,89,0.00,,,0.00,Wunderground v.1.15,2014-01-13 12:10:00,
2014-01-13 07:20:00,29.2,26.4,30.07,West,276,0.0,0.0,89,0.00,,,0.00,Wunderground v.1.15,2014-01-13 12:20:00,
2014-01-13 07:30:00,29.7,26.9,30.07,West,277,0.0,0.0,89,0.00,,,0.00,Wunderground v.1.15,2014-01-13 12:30:00,
2014-01-13 07:40:00,29.9,26.8,30.07,West,277,0.0,0.0,88,0.00,,,0.00,Wunderground v.1.15,2014-01-13 12:40:00,
2014-01-13 07:50:00,30.3,27.2,30.08,West,277,0.0,0.0,88,0.00,,,0.00,Wunderground v.1.15,2014-01-13 12:50:00,
2014-01-13 08:00:00,30.8,27.4,30.08,West,277,0.0,0.0,87,0.00,,,0.00,Wunderground v.1.15,2014-01-13 13:00:00,
2014-01-13 08:10:00,31.7,28.0,30.08,West,277,0.0,1.0,86,0.00,,,0.00,Wunderground v.1.15,2014-01-13 13:10:00,
2014-01-13 08:20:00,32.8,28.8,30.08,West,277,0.0,0.0,85,0.00,,,0.00,Wunderground v.1.15,2014-01-13 13:20:00,
2014-01-13 08:30:00,33.7,29.1,30.08,West,277,0.0,0.0,83,0.00,,,0.00,Wunderground v.1.15,2014-01-13 13:30:00,
2014-01-13 08:40:00,34.5,29.6,30.08,West,277,0.0,1.0,82,0.00,,,0.00,Wunderground v.1.15,2014-01-13 13:40:00,
2014-01-13 08:50:00,35.3,29.7,30.09,West,277,0.0,0.0,80,0.00,,,0.00,Wunderground v.1.15,2014-01-13 13:50:00,
2014-01-13 09:00:00,35.9,30.0,30.09,WNW,300,1.0,1.0,79,0.00,,,0.00,Wunderground v.1.15,2014-01-13 14:00:00,
2014-01-13 09:10:00,36.6,30.4,30.09,West,269,1.0,1.0,78,0.00,,,0.00,Wunderground v.1.15,2014-01-13 14:10:00,
2014-01-13 09:20:00,37.3,30.7,30.09,WNW,288,2.0,2.0,77,0.00,,,0.00,Wunderground v.1.15,2014-01-13 14:20:00,
2014-01-13 09:30:00,38.3,31.1,30.09,WNW,295,1.0,1.0,75,0.00,,,0.00,Wunderground v.1.15,2014-01-13 14:30:00,
2014-01-13 09:40:00,39.0,31.1,30.08,West,259,2.0,2.0,73,0.00,,,0.00,Wunderground v.1.15,2014-01-13 14:40:00,
2014-01-13 09:50:00,40.5,31.8,30.08,South,188,1.0,1.0,71,0.00,,,0.00,Wunderground v.1.15,2014-01-13 14:50:00,
2014-01-13 10:00:00,40.9,31.5,30.09,WSW,257,1.0,1.0,69,0.00,,,0.00,Wunderground v.1.15,2014-01-13 15:00:00,
2014-01-13 10:10:00,41.8,32.0,30.08,SSW,205,1.0,1.0,68,0.00,,,0.00,Wunderground v.1.15,2014-01-13 15:10:00,
2014-01-13 10:20:00,42.2,31.6,30.07,SW,221,3.0,3.0,66,0.00,,,0.00,Wunderground v.1.15,2014-01-13 15:20:00,
2014-01-13 10:30:00,42.8,31.8,30.08,West,262,3.0,3.0,65,0.00,,,0.00,Wunderground v.1.15,2014-01-13 15:30:00,
2014-01-13 10:40:00,42.9,31.6,30.08,WSW,240,4.0,4.0,64,0.00,,,0.00,Wunderground v.1.15,2014-01-13 15:40:00,
2014-01-13 10:50:00,43.6,32.2,30.08,SSW,200,3.0,3.0,64,0.00,,,0.00,Wunderground v.1.15,2014-01-13 15:50:00,
2014-01-13 11:00:00,45.0,32.3,30.07,WSW,254,3.0,3.0,61,0.00,,,0.00,Wunderground v.1.15,2014-01-13 16:00:00,
2014-01-13 11:10:00,46.1,32.1,30.06,WNW,284,2.0,7.0,58,0.00,,,0.00,Wunderground v.1.15,2014-01-13 16:10:00,
2014-01-13 11:20:00,46.6,32.2,30.06,SW,226,4.0,4.0,57,0.00,,,0.00,Wunderground v.1.15,2014-01-13 16:20:00,
2014-01-13 11:30:00,46.1,32.1,30.05,WSW,240,3.0,3.0,58,0.00,,,0.00,Wunderground v.1.15,2014-01-13 16:30:00,
2014-01-13 11:40:00,46.7,32.3,30.04,SW,219,3.0,3.0,57,0.00,,,0.00,Wunderground v.1.15,2014-01-13 16:40:00,
2014-01-13 11:50:00,47.6,32.2,30.03,WSW,250,4.0,4.0,55,0.00,,,0.00,Wunderground v.1.15,2014-01-13 16:50:00,
2014-01-13 12:00:00,48.1,32.2,30.02,SSW,200,3.0,5.0,54,0.00,,,0.00,Wunderground v.1.15,2014-01-13 17:00:00,
2014-01-13 12:10:00,48.9,33.0,30.02,South,171,3.0,5.0,54,0.00,,,0.00,Wunderground v.1.15,2014-01-13 17:10:00,
2014-01-13 12:20:00,49.2,33.3,30.02,WSW,245,4.0,4.0,54,0.00,,,0.00,Wunderground v.1.15,2014-01-13 17:20:00,
2014-01-13 12:30:00,49.9,33.4,30.01,WSW,242,2.0,3.0,53,0.00,,,0.00,Wunderground v.1.15,2014-01-13 17:30:00,
2014-01-13 12:40:00,50.1,33.1,30.01,WSW,248,3.0,3.0,52,0.00,,,0.00,Wunderground v.1.15,2014-01-13 17:40:00,
2014-01-13 12:50:00,50.3,33.3,30.00,SSE,167,4.0,4.0,52,0.00,,,0.00,Wunderground v.1.15,2014-01-13 17:50:00,
2014-01-13 13:00:00,50.6,33.6,30.01,West,261,3.0,4.0,52,0.00,,,0.00,Wunderground v.1.15,2014-01-13 18:00:00,
2014-01-13 13:10:00,51.1,34.1,30.00,West,275,5.0,5.0,52,0.00,,,0.00,Wunderground v.1.15,2014-01-13 18:10:00,
2014-01-13 13:20:00,51.1,34.1,30.00,WSW,252,4.0,4.0,52,0.00,,,0.00,Wunderground v.1.15,2014-01-13 18:20:00,
2014-01-13 13:30:00,51.1,34.1,30.00,South,190,4.0,8.0,52,0.00,,,0.00,Wunderground v.1.15,2014-01-13 18:30:00,
2014-01-13 13:40:00,51.9,34.8,29.99,WSW,254,5.0,5.0,52,0.00,,,0.00,Wunderground v.1.15,2014-01-13 18:40:00,
2014-01-13 13:50:00,52.5,35.4,30.00,West,275,4.0,5.0,52,0.00,,,0.00,Wunderground v.1.15,2014-01-13 18:50:00,
2014-01-13 14:00:00,52.6,35.5,30.00,WSW,250,5.0,5.0,52,0.00,,,0.00,Wunderground v.1.15,2014-01-13 19:00:00,
2014-01-13 14:10:00,52.6,35.5,30.01,West,265,6.0,6.0,52,0.00,,,0.00,Wunderground v.1.15,2014-01-13 19:10:00,
2014-01-13 14:20:00,52.4,34.8,29.99,WSW,247,6.0,6.0,51,0.00,,,0.00,Wunderground v.1.15,2014-01-13 19:20:00,
2014-01-13 14:30:00,52.2,34.6,29.99,West,266,3.0,3.0,51,0.00,,,0.00,Wunderground v.1.15,2014-01-13 19:30:00,
2014-01-13 14:40:00,52.3,35.2,30.00,SW,227,3.0,3.0,52,0.00,,,0.00,Wunderground v.1.15,2014-01-13 19:40:00,
2014-01-13 14:50:00,52.4,34.8,29.99,West,261,4.0,4.0,51,0.00,,,0.00,Wunderground v.1.15,2014-01-13 19:50:00,
2014-01-13 15:00:00,51.7,34.6,29.99,South,182,5.0,5.0,52,0.00,,,0.00,Wunderground v.1.15,2014-01-13 20:00:00,
2014-01-13 15:10:00,50.8,34.3,29.99,West,275,5.0,5.0,53,0.00,,,0.00,Wunderground v.1.15,2014-01-13 20:10:00,
2014-01-13 15:20:00,50.1,34.5,29.98,South,186,5.0,7.0,55,0.00,,,0.00,Wunderground v.1.15,2014-01-13 20:20:00,
2014-01-13 15:30:00,49.3,34.3,29.98,South,190,5.0,5.0,56,0.00,,,0.00,Wunderground v.1.15,2014-01-13 20:30:00,
2014-01-13 15:40:00,48.9,34.8,29.98,SW,230,3.0,3.0,58,0.00,,,0.00,Wunderground v.1.15,2014-01-13 20:40:00,
2014-01-13 15:50:00,48.7,34.6,29.99,WSW,242,4.0,4.0,58,0.00,,,0.00,Wunderground v.1.15,2014-01-13 20:50:00,
2014-01-13 16:00:00,48.2,35.0,29.98,WNW,283,4.0,4.0,60,0.00,,,0.00,Wunderground v.1.15,2014-01-13 21:00:00,
2014-01-13 16:10:00,47.9,35.1,29.98,WSW,250,4.0,4.0,61,0.00,,,0.00,Wunderground v.1.15,2014-01-13 21:10:00,
2014-01-13 16:20:00,47.4,35.4,29.99,WSW,257,2.0,3.0,63,0.00,,,0.00,Wunderground v.1.15,2014-01-13 21:20:00,
2014-01-13 16:30:00,47.1,35.9,29.98,SW,227,4.0,4.0,65,0.00,,,0.00,Wunderground v.1.15,2014-01-13 21:30:00,
2014-01-13 16:40:00,46.9,36.5,29.99,WSW,240,5.0,5.0,67,0.00,,,0.00,Wunderground v.1.15,2014-01-13 21:40:00,
2014-01-13 16:50:00,46.8,37.5,29.99,West,261,5.0,5.0,70,0.00,,,0.00,Wunderground v.1.15,2014-01-13 21:50:00,
2014-01-13 17:00:00,46.6,38.1,29.98,WSW,248,3.0,3.0,72,0.00,,,0.00,Wunderground v.1.15,2014-01-13 22:00:00,
2014-01-13 17:10:00,46.5,38.3,29.98,West,271,3.0,3.0,73,0.00,,,0.00,Wunderground v.1.15,2014-01-13 22:10:00,
2014-01-13 17:20:00,46.5,39.3,29.98,WNW,295,3.0,3.0,76,0.00,,,0.00,Wunderground v.1.15,2014-01-13 22:20:00,
2014-01-13 17:40:00,46.2,40.0,29.98,SW,215,2.0,3.0,79,0.00,,,0.00,Wunderground v.1.15,2014-01-13 22:40:00,
2014-01-13 17:50:00,46.1,40.3,29.98,WSW,241,2.0,2.0,80,0.00,,,0.00,Wunderground v.1.15,2014-01-13 22:50:00,
2014-01-13 18:00:00,46.0,40.5,29.98,WSW,240,3.0,3.0,81,0.00,,,0.00,Wunderground v.1.15,2014-01-13 23:00:00,
2014-01-13 18:10:00,46.0,40.8,29.98,WNW,298,2.0,2.0,82,0.00,,,0.00,Wunderground v.1.15,2014-01-13 23:10:00,
2014-01-13 18:20:00,45.9,41.0,29.99,SW,221,1.0,1.0,83,0.00,,,0.00,Wunderground v.1.15,2014-01-13 23:20:00,
2014-01-13 18:30:00,45.8,41.2,29.99,WSW,248,2.0,2.0,84,0.00,,,0.00,Wunderground v.1.15,2014-01-13 23:30:00,
2014-01-13 18:40:00,45.6,41.0,29.99,SSW,211,1.0,1.0,84,0.00,,,0.00,Wunderground v.1.15,2014-01-13 23:40:00,
2014-01-13 18:50:00,45.6,41.4,29.99,SW,218,2.0,2.0,85,0.00,,,0.00,Wunderground v.1.15,2014-01-13 23:50:00,
2014-01-13 19:00:00,45.7,41.8,29.99,WSW,244,2.0,2.0,86,0.00,,,0.00,Wunderground v.1.15,2014-01-14 00:00:00,
2014-01-13 19:09:00,45.8,41.9,29.99,SW,220,2.0,2.0,86,0.00,,,0.00,Wunderground v.1.15,2014-01-14 00:09:00,
2014-01-13 19:20:00,45.8,41.9,29.97,SSW,210,2.0,2.0,86,0.00,,,0.00,Wunderground v.1.15,2014-01-14 00:20:00,
2014-01-13 19:30:00,46.0,42.3,29.97,South,188,2.0,3.0,87,0.00,,,0.00,Wunderground v.1.15,2014-01-14 00:30:00,
2014-01-13 19:40:00,46.0,42.3,29.97,SSW,196,1.0,4.0,87,0.00,,,0.00,Wunderground v.1.15,2014-01-14 00:40:00,
2014-01-13 19:50:00,46.1,42.7,29.96,SSW,205,2.0,2.0,88,0.00,,,0.00,Wunderground v.1.15,2014-01-14 00:50:00,
2014-01-13 20:00:00,46.1,42.7,29.96,SSW,202,1.0,2.0,88,0.00,,,0.00,Wunderground v.1.15,2014-01-14 01:00:00,
2014-01-13 20:10:00,46.1,42.7,29.95,SSW,198,1.0,1.0,88,0.00,,,0.00,Wunderground v.1.15,2014-01-14 01:10:00,
2014-01-13 20:20:00,45.8,42.4,29.94,South,186,1.0,1.0,88,0.00,,,0.00,Wunderground v.1.15,2014-01-14 01:20:00,
2014-01-13 20:30:00,45.4,42.3,29.93,South,187,1.0,3.0,89,0.00,,,0.00,Wunderground v.1.15,2014-01-14 01:30:00,
2014-01-13 20:40:00,45.6,42.8,29.92,SSW,193,3.0,3.0,90,0.00,,,0.00,Wunderground v.1.15,2014-01-14 01:40:00,
2014-01-13 20:50:00,45.7,42.9,29.93,SW,219,2.0,2.0,90,0.00,,,0.00,Wunderground v.1.15,2014-01-14 01:50:00,
2014-01-13 21:00:00,46.0,43.2,29.91,SSW,208,3.0,3.0,90,0.00,,,0.00,Wunderground v.1.15,2014-01-14 02:00:00,
2014-01-13 21:10:00,46.1,43.3,29.93,SW,214,1.0,1.0,90,0.00,,,0.00,Wunderground v.1.15,2014-01-14 02:10:00,
2014-01-13 21:20:00,46.5,43.4,29.92,WSW,244,1.0,1.0,89,0.00,,,0.00,Wunderground v.1.15,2014-01-14 02:20:00,
2014-01-13 21:30:00,46.8,43.4,29.91,South,190,1.0,1.0,88,0.00,,,0.00,Wunderground v.1.15,2014-01-14 02:30:00,
2014-01-13 21:40:00,47.1,43.4,29.91,SW,217,2.0,2.0,87,0.00,,,0.00,Wunderground v.1.15,2014-01-14 02:40:00,
2014-01-13 21:50:00,47.5,43.8,29.91,WSW,250,2.0,2.0,87,0.00,,,0.00,Wunderground v.1.15,2014-01-14 02:50:00,
2014-01-13 22:00:00,47.8,43.8,29.90,WSW,250,3.0,3.0,86,0.00,,,0.00,Wunderground v.1.15,2014-01-14 03:00:00,
2014-01-13 22:10:00,48.1,44.1,29.89,WSW,244,3.0,3.0,86,0.00,,,0.00,Wunderground v.1.15,2014-01-14 03:10:00,
2014-01-13 22:20:00,48.2,44.2,29.89,WNW,287,3.0,7.0,86,0.00,,,0.00,Wunderground v.1.15,2014-01-14 03:20:00,
2014-01-13 22:30:00,48.5,44.5,29.90,West,263,4.0,4.0,86,0.00,,,0.00,Wunderground v.1.15,2014-01-14 03:30:00,
2014-01-13 22:40:00,48.6,44.6,29.89,West,281,4.0,4.0,86,0.00,,,0.00,Wunderground v.1.15,2014-01-14 03:40:00,
2014-01-13 22:50:00,48.7,44.7,29.88,WNW,286,4.0,4.0,86,0.00,,,0.00,Wunderground v.1.15,2014-01-14 03:50:00,
2014-01-13 23:00:00,48.7,45.0,29.89,WNW,287,4.0,4.0,87,0.00,,,0.00,Wunderground v.1.15,2014-01-14 04:00:00,
2014-01-13 23:10:00,48.8,45.4,29.88,WSW,249,3.0,5.0,88,0.00,,,0.00,Wunderground v.1.15,2014-01-14 04:10:00,
2014-01-13 23:20:00,49.2,46.1,29.87,WSW,248,5.0,5.0,89,0.00,,,0.00,Wunderground v.1.15,2014-01-14 04:20:00,
2014-01-13 23:30:00,49.2,46.4,29.87,West,263,5.0,5.0,90,0.00,,,0.00,Wunderground v.1.15,2014-01-14 04:30:00,
2014-01-13 23:40:00,49.3,46.5,29.87,WSW,257,5.0,6.0,90,0.00,,,0.00,Wunderground v.1.15,2014-01-14 04:40:00,
2014-01-13 23:50:00,49.4,46.6,29.87,SSW,200,5.0,5.0,90,0.00,,,0.00,Wunderground v.1.15,2014-01-14 04:50:00,